CW3442 Weather Reports


Display with metric or nautical units.
time (UTC)temp
F
wind
direction
speed
MPH
gust
MPH
rain 1hr
in
rain 24hr
in
rain mn
in
humidity
%
barometer
mb
20260901080537 58 173 0.0 0.0 0.00 0.00 0.00 91 1013.2
20260901073529 58 173 0.0 0.0 0.00 0.00 0.00 91 1013.4
20260901070537 59 173 0.0 0.0 0.00 0.00 0.00 91 1013.5
20260901063535 59 173 0.0 0.0 0.00 0.00 0.00 91 1013.5
20260901060553 59 173 0.0 0.0 0.00 0.00 0.00 91 1013.8
20260901053527 59 173 0.0 0.0 0.00 0.00 0.00 90 1013.9
20260901050536 60 173 0.0 0.0 0.00 0.00 0.00 90 1013.8
20260901043537 60 173 0.0 0.0 0.00 0.00 0.00 89 1013.7
20260901040528 61 173 0.0 0.0 0.00 0.00 0.00 88 1013.8
20260901033548 61 173 0.0 0.0 0.00 0.00 0.00 87 1013.5
20260901030538 62 173 0.0 0.0 0.00 0.00 0.00 87 1013.4
20260901023543 62 173 0.0 0.0 0.00 0.00 0.00 86 1013.4
20260901020526 63 173 0.0 0.0 0.00 0.00 0.00 83 1013.4
20260901013522 65 173 0.0 0.0 0.00 0.00 0.00 82 1013.6
20260901010555 66 173 0.0 0.0 0.00 0.00 0.00 79 1013.5
20260901003535 67 173 0.0 0.0 0.00 0.00 0.00 75 1013.3
20260901000542 68 173 0.0 0.0 0.00 0.00 0.00 72 1013.1
20260831233532 70 173 0.0 0.0 0.00 0.00 0.00 68 1013.1
20260831230534 72 173 0.0 0.0 0.00 0.00 0.00 62 1013.2
20260831223537 74 168 0.0 0.0 0.00 0.00 0.00 59 1013.4
20260831220534 74 136 0.0 0.0 0.00 0.00 0.00 56 1013.5
20260831213527 75 226 0.0 0.0 0.00 0.00 0.00 54 1013.7
20260831210538 75 172 0.0 0.0 0.00 0.00 0.00 53 1013.8
20260831203530 75 197 0.0 0.0 0.00 0.00 0.00 54 1013.8
20260831200527 75 184 0.0 0.0 0.00 0.00 0.00 53 1013.9
20260831193526 75 113 0.0 0.0 0.00 0.00 0.00 54 1014.4
20260831190528 76 186 0.0 0.0 0.00 0.00 0.00 57 1014.8
20260831183528 76 196 0.0 0.0 0.00 0.00 0.00 55 1015.0
20260831180526 76 109 0.0 0.0 0.00 0.00 0.00 55 1015.3
20260831173538 75 63 0.0 0.0 0.00 0.00 0.00 55 1015.8
20260831170528 75 49 0.0 0.0 0.00 0.00 0.00 56 1015.9
20260831163551 75 196 0.0 0.0 0.00 0.00 0.00 59 1016.1
20260831160548 74 74 0.0 0.0 0.00 0.00 0.00 55 1016.3
20260831153550 72 162 0.0 0.0 0.00 0.00 0.00 63 1016.6
20260831150533 70 121 0.0 0.0 0.00 0.00 0.00 70 1016.4
20260831143603 69 86 0.0 0.0 0.00 0.00 0.00 73 1016.7
20260831140527 67 77 0.0 0.0 0.00 0.00 0.00 76 1016.8
20260831133527 64 145 0.0 0.0 0.00 0.00 0.00 83 1017.0
20260831130601 60 188 0.0 0.0 0.00 0.00 0.00 93 1017.2
20260831123540 56 213 0.0 0.0 0.00 0.00 0.00 95 1017.4
20260831120533 54 213 0.0 0.0 0.00 0.00 0.00 95 1017.3
20260831113533 52 213 0.0 0.0 0.00 0.00 0.00 95 1017.1
20260831110527 51 213 0.0 0.0 0.00 0.00 0.00 95 1016.6
20260831103537 50 213 0.0 0.0 0.00 0.00 0.00 95 1016.1
20260831100527 51 213 0.0 0.0 0.00 0.00 0.00 94 1015.9
20260831093540 51 213 0.0 0.0 0.00 0.00 0.00 95 1015.9
20260831090538 52 213 0.0 0.0 0.00 0.00 0.00 95 1016.0
20260831083526 52 213 0.0 0.0 0.00 0.00 0.00 94 1015.9